Regional Weather Roundup
Issued by NWS

Home | Current Version | Previous Version | Text Only | Print | Product List | Glossary Off
Versions: 1 2 3 4 5 6 7 8 9 10 11 12 13 14 15 16 17 18 19 20 21 22 23 24 25 26 27 28 29 30 31 32 33 34 35 36 37 38 39 40 41 42 43 44 45 46 47 48 49 50

934
ASUS43 KBIS 240202
RWRND

NORTH DAKOTA REGIONAL WEATHER ROUNDUP
NATIONAL WEATHER SERVICE BISMARCK ND
800 PM CST MON JAN 23 2017

NOTE: "FAIR" INDICATES FEW OR NO CLOUDS BELOW 12,000 FEET WITH NO
SIGNIFICANT WEATHER AND/OR OBSTRUCTIONS TO VISIBILITY.


NDZ001>003-009>011-017-240300-
NORTHWEST NORTH DAKOTA

CITY           SKY/WX    TMP DP  RH WIND       PRES   REMARKS
WILLISTON      CLOUDY    22  18  85 W5        29.82S WCI  16
MINOT          CLOUDY    23  18  81 W10       29.79R WCI  12
$$

NDZ018>021-031>035-040>046-240300-
SOUTHWEST NORTH DAKOTA

CITY           SKY/WX    TMP DP  RH WIND       PRES   REMARKS
BISMARCK       CLOUDY    31  24  75 N6        29.82R
DICKINSON      CLOUDY    23  21  92 CALM      29.75R
GARRISON         N/A     23  20  88 NW6       29.80R WCI  16
HETTINGER ARPT CLOUDY    21  20  96 NE7       29.77R FOG     WCI  12
$$

NDZ004>008-012>016-024-026-027-054-240300-
NORTHEAST NORTH DAKOTA

CITY           SKY/WX    TMP DP  RH WIND       PRES   REMARKS
GRAND FORKS    CLOUDY    29  22  75 W12       29.81S WCI  19
GRND FRKS AFB  CLOUDY    28  22  78 NW12      29.81S WCI  17
DEVILS LAKE    CLOUDY    22  19  89 W17       29.79S WCI   8
$$

NDZ022-023-025-028>030-036>039-047>053-240300-
SOUTHEAST NORTH DAKOTA

CITY           SKY/WX    TMP DP  RH WIND       PRES   REMARKS
FARGO          CLOUDY    33  27  78 CALM      29.83S
JAMESTOWN      CLOUDY    29  23  78 SW5       29.80R
$$





USA.gov is the U.S. government's official web portal to all federal, state and local government web resources and services.